Address 0x68e24d5e40d517f5b8c0f3027f035ea92acb61f1 1

My Name Tag:
Not Available

Txn Hash Method
Block
From
To
Value [Txn Fee]
0x337db9496f41231674dd4fef049839b810ea8d5310114917b421f887653649fe0xbef1e500139318062022-09-25 13:51:5511 days 15 hrs ago0x68e24d5e40d517f5b8c0f3027f035ea92acb61f1OUT0x2e1d0c56c6913fd6135f887080f7a14123a142a80 AVAX0.0102362436
0x274e401c34c551c3f7f1addfbfa8f127ea470748fdf12b28911bb1b8764d96520xbef1e500139315012022-09-25 13:41:4511 days 15 hrs ago0x68e24d5e40d517f5b8c0f3027f035ea92acb61f1OUT0x2e1d0c56c6913fd6135f887080f7a14123a142a80 AVAX0.0108049238
0xeffd67b1d747d04c8f89b766837df9d841f29e143bd9ad4e260227873474d5060xbef1e500139311972022-09-25 13:31:3411 days 15 hrs ago0x68e24d5e40d517f5b8c0f3027f035ea92acb61f1OUT0x2e1d0c56c6913fd6135f887080f7a14123a142a80 AVAX0.009951935
0x49990a82d34001acd3bf330a7de8a35a9fdac9f11e3430e7bf9f90b20213bf480x6549920d139190972022-09-25 6:47:0811 days 22 hrs ago0x68e24d5e40d517f5b8c0f3027f035ea92acb61f1OUT0x2e1d0c56c6913fd6135f887080f7a14123a142a80 AVAX0.01882735129
0xd4d4b27eaaa95c70d9c4e544f97ebf2b39f9f032738e120bd55face491338955Mint139190922022-09-25 6:46:5811 days 22 hrs ago0x68e24d5e40d517f5b8c0f3027f035ea92acb61f1OUT0x128e174b7206a0beb599806d27c355fab1c9af8b0 AVAX0.00116418428
0xd595b88116721b572ef5c1a2118e95c98da8adddd3ddaccc42572674c2e4e611Harvest139112362022-09-25 3:13:1912 days 1 hr ago0x68e24d5e40d517f5b8c0f3027f035ea92acb61f1OUT0x951accccfdf619d3cd8cfe0e4823d8e80354eb410 AVAX0.001811628
0x7cdd4b5b6113fe285cfce4c030aeb0a0e9113a41be98a0bc0682d47e8d34190f0x6549920d138946862022-09-24 18:16:1312 days 10 hrs ago0x68e24d5e40d517f5b8c0f3027f035ea92acb61f1OUT0x2e1d0c56c6913fd6135f887080f7a14123a142a80 AVAX0.0194940929
0x3a40118bffc914ad3464172b65e66aa55380049111a7504aa23b776306087393Mint138946862022-09-24 18:16:1312 days 10 hrs ago0x68e24d5e40d517f5b8c0f3027f035ea92acb61f1OUT0x0faf4bf0bf669cad5a3ce24839abc9d143d0cb7e0 AVAX0.00116418428
0xe1f8f148bb796deba6f27d4b3b568befa759827a768caad7e75f621ddae603eb0x6549920d138946862022-09-24 18:16:1312 days 10 hrs ago0x68e24d5e40d517f5b8c0f3027f035ea92acb61f1OUT0x2e1d0c56c6913fd6135f887080f7a14123a142a80 AVAX0.01817824428
0xf4670b46ebcda8737d0abf2658272b6b3acb20fe7038807cda1d43e8cbe92e130x6549920d138946792022-09-24 18:15:5912 days 10 hrs ago0x68e24d5e40d517f5b8c0f3027f035ea92acb61f1OUT0x2e1d0c56c6913fd6135f887080f7a14123a142a80 AVAX0.0178642828
0x7316b5569533da3db7f7dc0e091eb3e169c78424c16c64473743ff6edaeb2429Mint138945392022-09-24 18:11:2012 days 11 hrs ago0x68e24d5e40d517f5b8c0f3027f035ea92acb61f1OUT0x5462894dee859029c2939e74485865da2148f63c0 AVAX0.00116418428
0x5f97095710273dc7ac06116aab4419096559f2bc39e6a77d82b816aaed19141b0xab07211e138793352022-09-24 9:44:0312 days 19 hrs ago0x68e24d5e40d517f5b8c0f3027f035ea92acb61f1OUT0x2e1d0c56c6913fd6135f887080f7a14123a142a80 AVAX0.00589915228
0x876443627c66c154762b4308009ac8e8b7de83a50b7a366dbff5efa222054aed0x4ea4c6b3138793322022-09-24 9:43:5612 days 19 hrs ago0x68e24d5e40d517f5b8c0f3027f035ea92acb61f1OUT0x2e1d0c56c6913fd6135f887080f7a14123a142a80 AVAX0.00728422828
0xe31f552eeba2d9ab60a40c869846640916d68d02528f9546dea7d96cc7f954990xab07211e138793282022-09-24 9:43:4912 days 19 hrs ago0x68e24d5e40d517f5b8c0f3027f035ea92acb61f1OUT0x2e1d0c56c6913fd6135f887080f7a14123a142a80 AVAX0.0023820629
0xd6cdb53afedfb378fafd1c57cdb5f50a3a48e086bbc97fdedc8c748937ebdc780x6549920d138751582022-09-24 7:24:4412 days 21 hrs ago0x68e24d5e40d517f5b8c0f3027f035ea92acb61f1OUT0x2e1d0c56c6913fd6135f887080f7a14123a142a80 AVAX0.0186573828
0xc19a1857e2afb405f8b758280890611c65aaa7faf7078a3975b915b7094e5075Approve138751542022-09-24 7:24:3712 days 21 hrs ago0x68e24d5e40d517f5b8c0f3027f035ea92acb61f1OUT0x128e174b7206a0beb599806d27c355fab1c9af8b0 AVAX0.00129726828
0x8d3eef3227bc779a5be1546bf5d53c7c03458e8f2121b03951e8dd12990d80c8Mint138751492022-09-24 7:24:2612 days 21 hrs ago0x68e24d5e40d517f5b8c0f3027f035ea92acb61f1OUT0x128e174b7206a0beb599806d27c355fab1c9af8b0 AVAX0.00212178428
0x84231fde43bb38a834c1b010985ff5281c9094617a6b5d10b798bbc49b9137fbClaim138751442022-09-24 7:24:1712 days 21 hrs ago0x68e24d5e40d517f5b8c0f3027f035ea92acb61f1OUT0xba818c3a8c961e22be7b399b14cd384c08dd94a90 AVAX0.00196796929
0xe20cc74f4097009ded6c6779fd598506c4ea32414c08dca7568626795892fb940x6549920d138706642022-09-24 4:54:2113 days 17 mins ago0x68e24d5e40d517f5b8c0f3027f035ea92acb61f1OUT0x2e1d0c56c6913fd6135f887080f7a14123a142a80 AVAX0.0178332629
0x38b9e0c32f486632a09a8be9dbebd9af7ed37a467f967657e5a7bff264c38f67Mint138706612022-09-24 4:54:1613 days 17 mins ago0x68e24d5e40d517f5b8c0f3027f035ea92acb61f1OUT0x0faf4bf0bf669cad5a3ce24839abc9d143d0cb7e0 AVAX0.00120576229
0x969ad2de2edbc36984ab730dcd5c6332c299c893a2f43ddd693072e88f0ca8f90x6549920d138706562022-09-24 4:54:0613 days 18 mins ago0x68e24d5e40d517f5b8c0f3027f035ea92acb61f1OUT0x2e1d0c56c6913fd6135f887080f7a14123a142a80 AVAX0.0172183228
0x2d3fbae80fd9e6873e75ac3982c1b2627165bcdc89e5aa4299fa865f7ead9f530x6549920d138706522022-09-24 4:53:5813 days 18 mins ago0x68e24d5e40d517f5b8c0f3027f035ea92acb61f1OUT0x2e1d0c56c6913fd6135f887080f7a14123a142a80 AVAX0.01721865628
0x6dbd846bab839d657f933116657d3ab2ef555eca269df44a04142e38bd9ba0440x6549920d138706432022-09-24 4:53:3913 days 18 mins ago0x68e24d5e40d517f5b8c0f3027f035ea92acb61f1OUT0x2e1d0c56c6913fd6135f887080f7a14123a142a80 AVAX0.01787116828
0x39c0fefaa00cab7d4eeb7d611c77a100be7a76b5e5f03464d0020126dfba1da0Mint138706372022-09-24 4:53:2713 days 18 mins ago0x68e24d5e40d517f5b8c0f3027f035ea92acb61f1OUT0x7dad0ddefd94d75c598e791375b3daaae04a05dc0 AVAX0.00116418428
0xbd6c28d934fa71b551e745b7afa96c33ffed8eac89ba6fe8ae02a14d1d75ab980x6549920d138574202022-09-23 21:32:4613 days 7 hrs ago0x68e24d5e40d517f5b8c0f3027f035ea92acb61f1OUT0x2e1d0c56c6913fd6135f887080f7a14123a142a80 AVAX0.01801352429
[ Download CSV Export 
Parent Txn Hash Block From To Value
Loading

Contract Name:
0

Compiler Version
0

Optimization Enabled:
0

Other Settings:
-NA-
Block Transaction Gas Used Reward
Age Block Fee Address BC Fee Address Voting Power Jailed Incoming
Block Uncle Number Difficulty Gas Used Reward
Loading